sat.trackr.live / text

‹ back to catalog

ONEWEB-0544

NORAD 55144 · 2023-004E

PAYLOAD ACTIVE UNKNOWN

§ Identity

Operator
Country
UK
Launch date
2023-01-10
Launch site
AFETR
Launch vehicle
Mass (kg)
RCS (m²)

Purposes: comms

External: N2YO · Heavens-Above · Gunter

§ Orbital elements

Epoch: 2026-05-25T02:10:33.811104Z

Period
109.20 min
Inclination
87.9159°
Eccentricity
0.0001615
Mean motion
13.18686101 rev/d
Perigee alt
1,188.5 km
Apogee alt
1,191.0 km
Semi-major
7,567.9 km
B*
2.9795e-5
RAAN
340.0676°
Arg perigee
87.4309°
Mean anomaly
272.7008°
Rev number
16,665

§ Raw data

ONEWEB-05441 55144U 23004E   26145.09066911  .00000025  00000+0  29795-4 0  99902 55144  87.9159 340.0676 0001615  87.4309 272.7008 13.18686101166655

JSON: /api/v1/satellites/55144 · /tle

For live sub-satellite position, see the globe view (requires WebGL).

§ Visibility from observer

Set your observer location to see the next 7 days of passes ≥ 10°. The values pass through the URL so the page stays shareable.

No JS? Fill the form by hand. The geolocation button needs JavaScript.